Location: Batang Balui
(2.7000°N, 113.7833°E)
Time: 12:12:45
(UTC+00:00)

COSMOS 2251 DEB - Visible Passes

Search period start: 08 December 2023 00:00
Search period end: 18 December 2023 00:00
Orbit: 662 x 697 km, 74.0° (Epoch: 04 December)

Date Brightness Start Highest point End Pass type
(mag) Time Alt. Az. Time Alt. Az. Time Alt. Az.
14 Dec ? 12:26:30 10° S 12:27:27 16° S 12:27:27 16° S visible
15 Dec ? 13:02:57 10° SW 13:04:00 16° SW 13:04:00 16° SW visible
16 Dec ? 11:59:16 10° S 12:02:09 31° SSE 12:02:09 31° SSE visible
17 Dec ? 12:35:28 10° SSW 12:38:47 36° WSW 12:38:47 36° WSW visible
